Regional Weather Roundup
Issued by NWS

Home | Current Version | Previous Version | Graphics & Text | Print | Product List | Glossary On
Versions: 1 2 3 4 5 6 7 8 9 10 11 12 13 14 15 16 17 18 19 20 21 22 23 24 25 26 27 28
000
ASUS45 KBOU 011007
RWRCO

WEATHER ROUNDUP FOR COLORADO
NATIONAL WEATHER SERVICE DENVER/BOULDER CO
400 AM MDT SUN MAY 01 2016

NOTE: "FAIR" INDICATES FEW OR NO CLOUDS BELOW 12000 FEET WITH NO
SIGNIFICANT WEATHER AND/OR OBSTRUCTIONS TO VISIBILITY.

COZ001>005-013-030-031-011100-
...NORTHWEST COLORADO...

CITY           SKY/WX    TMP DP  RH WIND       PRES   REMARKS
CRAIG          FAIR      35  22  58 NE10      30.12S WCI  27
HAYDEN         FAIR      34  19  55 E15       30.13R WCI  24
MEEKER         FAIR      36  22  56 E8        30.05S
MOUNT WERNER   NOT AVBL
STEAMBOAT SPGS CLOUDY    34  18  52 E17G35    30.12S WCI  23
WALDEN         CLOUDY    28  21  74 NE9       30.20S WCI  20
$$

COZ006>008-011-011100-
...WEST CENTRAL VALLEYS...

CITY           SKY/WX    TMP DP  RH WIND       PRES   REMARKS
GRAND JUNCTION FAIR      41  29  62 S6        29.97R
MONTROSE       FAIR      34  28  79 CALM      30.00R
EAGLE          FAIR      34  28  80 CALM      30.12S
RIFLE          FAIR      37  27  67 CALM      30.03S
DELTA          NOT AVBL
NUCLA          NOT AVBL
$$

COZ017>023-064>068-011100-
...SOUTHWEST COLORADO...

CITY           SKY/WX    TMP DP  RH WIND       PRES   REMARKS
DURANGO        LGT RAIN  39  37  92 E3        29.95R
CORTEZ         CLOUDY    37  33  85 N3        29.91R
PAGOSA SPRINGS CLOUDY    40  27  61 E5        29.99S
TELLURIDE      FAIR      30  26  85 CALM      29.98S
WOLF CREEK PAS SNOW      18  18 100 NE17      30.10R VSB 1/4 WCI   2
$$

COZ009-010-012-014-032>034-037-058>063-011100-
...CENTRAL COLORADO...

CITY           SKY/WX    TMP DP  RH WIND       PRES   REMARKS
ASPEN          CLOUDY    35  17  47 SE10G17   30.05S WCI  27
BUENA VISTA    CLOUDY    26  21  81 CALM      30.17S
COPPER MTN     NOT AVBL
BERTHOUD PASS  CLOUDY     9   0  66 NE10G20   30.14R WCI  -6
COTTONWOOD PAS FLURRIES  25  21  86 SE8       30.16R WCI  16
GUNNISON       CLOUDY    34  18  51 E6        30.08S WCI  29
KREMMLING      FAIR      28  21  74 E6        30.17S WCI  22
LEADVILLE      CLOUDY    18  15  88 S8        30.12S WCI   8
MONARCH PASS   CLOUDY    14  10  85 MISG      30.16F
SALIDA         CLOUDY    31  26  80 CALM      30.25R
SUNLIGHT       CLOUDY   N/A N/A N/A NE7       30.10R
WILKERSON PASS LGT SNOW N/A N/A N/A NE3       30.17R
$$

COZ069>075-011100-
...SAN LUIS VALLEY/SANGRE DE CRISTO MOUNTAINS...

CITY           SKY/WX    TMP DP  RH WIND       PRES   REMARKS
ALAMOSA        CLOUDY    32  24  72 S6        30.07R WCI  26
LA VETA PASS   FOG       21  18  86 MISG      30.14R VSB 1/4
SAGUACHE       CLOUDY    32  19  59 NE7       30.07F WCI  26
$$

COZ035-036-038>040-011100-
...NORTHERN COLORADO FRONT RANGE...

CITY           SKY/WX    TMP DP  RH WIND       PRES   REMARKS
DENVER INTL AP LGT SNOW  33  28  81 N17       30.23R WCI  22
DMNS CITY PARK   N/A     35  30  83 N6G14     30.24R WCI  30
AURORA         CLOUDY    32  32 100 N15       30.23R WCI  22
FRONT RANGE AP NOT AVBL
ERIE MUNI ARPT CLOUDY    36  32  87 N10       30.25R
BOULDER MUN AP CLOUDY    36  32  87 N6        30.24S
CENTENNIAL     FLURRIES  32  29  88 N14       30.22R WCI  22
BROOMFIELD     CLOUDY    34  32  93 N15       30.24R WCI  24
FORT COLLINS   FAIR      36  28  75 NW12G18   30.25R
LONGMONT       FLURRIES  38  32  78 CALM      30.27R
$$

COZ041-046-047-076>085-087-088-011100-
...PIKES PEAK/PALMER DIVIDE AND SOUTHERN FOOTHILLS...

CITY           SKY/WX    TMP DP  RH WIND       PRES   REMARKS
COLO. SPRINGS  FLURRIES  33  25  72 NW20G29   30.18S WCI  21
A. F. ACADEMY  MIX PCPN  32  27  80 NW20      30.17S WCI  20
SCHRIEVER AFB  NOT AVBL
ELLICOTT       NOT AVBL
FALCON         LGT SNOW  29  28  93 N16G29    30.17S WCI  18
FORT CARSON    CLOUDY    34  27  75 N18G25    30.17R WCI  23
LIMON          CLOUDY    32  30  92 N29G37    30.15R WCI  18
MONUMENT HILL  CLOUDY    27  27 100 N23G29    30.19R FOG     WCI  12
TRINIDAD       CLOUDY    33  28  81 SW6       30.19R WCI  28
$$

COZ042>045-048>051-090-091-011100-
...NORTHEAST COLORADO...

CITY           SKY/WX    TMP DP  RH WIND       PRES   REMARKS
GREELEY ARPT   CLOUDY    37  30  75 N10       30.24R
AKRON          CLOUDY    32  30  92 N23       30.16R WCI  19
BURLINGTON     CLOUDY    34  30  85 N20G28    30.11R WCI  23
WRAY           NOT AVBL
STERLING       CLOUDY    36  34  93 N17       30.17S
HOLYOKE        NOT AVBL
FORT MORGAN    CLOUDY    35  32  89 N17G24    30.21R WCI  24
$$

COZ086-089-092>099-011100-
...SOUTHEAST COLORADO...

CITY           SKY/WX    TMP DP  RH WIND       PRES   REMARKS
PUEBLO         FAIR      39  27  62 N13       30.18R
LA JUNTA       MOCLDY    39  31  72 NW15      30.16S
LAMAR          CLOUDY    40  33  76 N23       30.10S
SPRINGFIELD      N/A     37  31  78 NW20G29   30.12R
$$




USA.gov is the U.S. government's official web portal to all federal, state and local government web resources and services.